Total_Precipitation_Accumulation
1.90 1.94 1.90 1.95 1.84 1.68 1.62 1.65 1.70 1.48 1.31 1.12 0.90 0.77 0.80 0.77 0.82 0.70 0.61 0.59 0.52 0.44 0.39 0.31 0.26 0.26 0.28 0.34 0.40 0.41 0.43 0.51 0.80 1.08 0.93 0.77 0.70 0.76
1.63 1.67 1.71 1.76 1.83 1.81 1.76 1.68 1.62 1.52 1.41 1.25 0.97 0.74 0.82 0.87 0.91 0.75 0.71 0.77 0.62 0.49 0.41 0.35 0.31 0.26 0.25 0.26 0.26 0.24 0.25 0.29 0.49 0.94 1.03 0.89 0.86 0.95
1.42 1.43 1.54 1.59 1.77 1.83 1.80 1.73 1.68 1.59 1.42 1.32 1.06 0.82 0.79 0.86 0.90 0.83 0.81 0.77 0.65 0.55 0.46 0.41 0.36 0.33 0.31 0.29 0.27 0.23 0.20 0.19 0.21 0.36 0.53 0.61 0.76 0.97
1.21 1.22 1.32 1.40 1.54 1.68 1.76 1.66 1.65 1.60 1.57 1.50 1.25 1.00 0.90 0.88 0.86 0.83 0.76 0.74 0.73 0.68 0.57 0.49 0.45 0.42 0.39 0.35 0.32 0.28 0.26 0.23 0.20 0.21 0.29 0.40 0.49 0.62
1.03 1.04 1.09 1.16 1.26 1.39 1.52 1.61 1.60 1.55 1.63 1.61 1.38 1.12 0.96 0.89 0.88 0.84 0.77 0.81 0.77 0.74 0.69 0.61 0.54 0.48 0.44 0.43 0.42 0.39 0.34 0.31 0.29 0.29 0.29 0.33 0.38 0.42
0.82 0.82 0.87 0.89 0.95 1.09 1.24 1.38 1.52 1.61 1.69 1.70 1.55 1.26 1.05 0.96 0.92 0.94 0.94 0.86 0.85 0.79 0.78 0.75 0.74 0.70 0.61 0.54 0.48 0.44 0.41 0.39 0.38 0.36 0.34 0.33 0.31 0.31
0.84 0.75 0.70 0.70 0.77 0.86 0.97 1.19 1.36 1.51 1.63 1.67 1.60 1.43 1.22 1.12 0.99 0.90 0.96 1.03 1.05 0.96 0.93 0.86 0.80 0.71 0.63 0.56 0.50 0.43 0.38 0.34 0.31 0.29 0.27 0.25 0.23 0.22
0.81 0.82 0.82 0.77 0.66 0.60 0.64 0.79 1.01 1.22 1.38 1.46 1.49 1.38 1.23 1.15 1.15 1.08 0.98 0.98 1.08 1.01 1.00 1.08 0.98 0.85 0.76 0.65 0.60 0.52 0.45 0.40 0.36 0.33 0.30 0.30 0.30 0.29
0.77 0.78 0.83 0.83 0.85 0.74 0.66 0.64 0.69 0.85 1.06 1.22 1.25 1.21 1.26 1.21 1.14 1.05 0.96 0.90 0.89 0.90 0.93 1.03 1.01 0.92 0.80 0.77 0.78 0.69 0.62 0.54 0.49 0.46 0.40 0.35 0.33 0.32
0.84 0.84 0.88 0.90 0.88 0.98 0.94 0.85 0.80 0.81 0.91 0.83 0.90 1.14 1.22 1.21 1.20 1.20 1.16 1.03 0.91 0.86 0.83 0.89 0.90 0.86 0.77 0.72 0.76 0.69 0.62 0.56 0.51 0.49 0.48 0.46 0.43 0.42
0.81 0.80 0.86 0.85 1.04 1.10 1.00 0.98 0.92 0.88 1.05 1.05 1.03 1.05 1.09 1.09 1.10 1.16 1.18 1.10 1.04 0.93 0.78 0.71 0.73 0.79 0.81 0.76 0.75 0.76 0.69 0.64 0.60 0.57 0.55 0.55 0.53 0.50
0.88 0.83 0.99 0.95 0.96 0.90 0.83 1.01 1.00 0.90 0.84 0.81 0.82 0.84 0.85 0.89 0.95 0.97 1.04 1.01 0.93 0.93 0.81 0.71 0.70 0.72 0.77 0.73 0.67 0.66 0.67 0.70 0.69 0.65 0.63 0.60 0.57 0.51
0.90 0.91 0.88 0.97 0.80 0.74 0.76 0.88 1.02 0.96 0.91 0.94 0.88 0.81 0.78 0.78 0.75 0.78 0.88 0.91 0.89 0.88 0.75 0.67 0.68 0.66 0.60 0.57 0.58 0.55 0.51 0.51 0.53 0.54 0.55 0.55 0.54 0.48
0.81 0.73 0.70 0.76 0.62 0.56 0.55 0.66 0.82 0.83 0.81 0.89 0.87 0.81 0.76 0.72 0.68 0.66 0.70 0.75 0.75 0.76 0.73 0.66 0.65 0.63 0.57 0.47 0.46 0.47 0.46 0.44 0.42 0.43 0.41 0.48 0.48 0.49
0.61 0.60 0.52 0.48 0.46 0.42 0.45 0.54 0.59 0.70 0.82 0.85 0.76 0.69 0.70 0.72 0.70 0.67 0.62 0.61 0.62 0.61 0.57 0.54 0.58 0.63 0.62 0.52 0.44 0.42 0.43 0.43 0.38 0.38 0.39 0.39 0.38 0.39
0.38 0.32 0.31 0.33 0.37 0.39 0.40 0.41 0.47 0.64 0.80 0.79 0.71 0.66 0.67 0.69 0.70 0.71 0.69 0.64 0.62 0.62 0.57 0.53 0.55 0.58 0.58 0.54 0.49 0.44 0.43 0.43 0.41 0.40 0.40 0.40 0.37 0.34
0.51 0.42 0.34 0.33 0.35 0.37 0.39 0.44 0.56 0.65 0.72 0.65 0.64 0.60 0.60 0.67 0.70 0.71 0.72 0.69 0.64 0.62 0.66 0.66 0.65 0.63 0.60 0.59 0.58 0.54 0.53 0.51 0.50 0.49 0.45 0.42 0.39 0.37
0.50 0.50 0.49 0.49 0.49 0.48 0.46 0.42 0.43 0.50 0.56 0.60 0.60 0.58 0.56 0.56 0.57 0.60 0.63 0.62 0.59 0.57 0.55 0.58 0.64 0.70 0.68 0.63 0.56 0.52 0.57 0.59 0.58 0.56 0.51 0.44 0.41 0.44
0.43 0.45 0.45 0.46 0.45 0.43 0.40 0.37 0.34 0.33 0.39 0.48 0.56 0.60 0.60 0.57 0.55 0.52 0.50 0.50 0.47 0.45 0.44 0.42 0.44 0.49 0.55 0.56 0.56 0.47 0.46 0.51 0.52 0.49 0.47 0.43 0.40 0.43
0.27 0.31 0.31 0.31 0.30 0.30 0.27 0.25 0.24 0.26 0.28 0.30 0.37 0.46 0.57 0.67 0.67 0.60 0.55 0.53 0.50 0.45 0.42 0.38 0.34 0.32 0.35 0.37 0.37 0.36 0.38 0.42 0.43 0.41 0.39 0.38 0.37 0.40
0.10 0.13 0.13 0.13 0.16 0.16 0.15 0.15 0.17 0.19 0.22 0.22 0.24 0.27 0.34 0.46 0.56 0.61 0.63 0.68 0.66 0.60 0.55 0.50 0.44 0.43 0.35 0.33 0.31 0.27 0.28 0.30 0.31 0.29 0.28 0.30 0.31 0.30
0.05 0.06 0.06 0.06 0.08 0.09 0.08 0.08 0.09 0.11 0.14 0.15 0.16 0.18 0.21 0.26 0.33 0.42 0.47 0.51 0.55 0.57 0.59 0.60 0.57 0.55 0.49 0.43 0.36 0.30 0.27 0.28 0.31 0.34 0.30 0.27 0.25 0.24
0.04 0.05 0.05 0.05 0.06 0.08 0.12 0.13 0.10 0.08 0.10 0.12 0.14 0.14 0.15 0.17 0.20 0.25 0.30 0.34 0.38 0.41 0.45 0.47 0.46 0.44 0.43 0.42 0.42 0.40 0.35 0.32 0.31 0.32 0.31 0.36 0.33 0.25